Погода в Няшабоже

Россия / Республика Коми     65°27′58″N   53°50′34″E
темп.,
°C
ветер,
м/с
пор.,
м/с
влажн.,
%
обл.,
%
осадки,
мм/ч
давл.,
гПа
погр.,
м
22 сентября, ср
ср2200:00+3сз2587100 0.0 102997
03:00+3ссз278698 0.0 1029218
06:00+3сз268499 0.0 1029209
09:00+4ссз2679100 0.0 1029251
12:00+5ссз147597 0.0 1030219
15:00+8с125845 0.0 1029398
18:00+3вюв11775 0.0 103010
21:00+2юз11840 0.0 102910
23 сентября, чт
чт2300:00+1юз11890 0.0 102910
03:000юз11910 0.0 102910
06:000ююз11885 0.0 102914
09:00+6ююз23680 0.0 1028319
12:00+10ююз2365100 0.0 1027626
15:00+11ю246758 0.0 1025738
18:00+5ю2493100 0.0 102564
21:00+4ююв2495100 0.0 102578
24 сентября, пт
пт2400:00+4ю2395100 0.0 102545
03:00+3ююв2295100 0.0 102432
06:00+2ююв249660 0.0 102476
09:00+8ююв367332 0.0 1024349
12:00+11ююв35565 0.0 1023656
15:00+11юв365734 0.0 1023741
18:00+6юв388368 0.0 1023158
21:00+4юв289152 0.0 1023165
25 сентября, сб
сб2500:00+4юв28936 0.0 1023151
03:00+3вюв299692 0.0 1022185
06:00+5вюв31282100 0.0 1021318
09:00+8юв4126998 0.0 1021446
12:00+12ююв4106078 0.0 1021711
15:00+11ююв386283 0.0 1021776
18:00+8юв21077100 0.0 1022287
21:00+9ююв41168100 0.0 1022577
26 сентября, вс
вс2600:00+7юв41175100 0.0 1022502
03:00+5юв41177100 0.0 1023457
06:00+5юв41277100 0.0 1024499
09:00+7юв4116247 0.0 1025638
12:00+10ююв585215 0.0 1026882
15:00+10юв485427 0.0 1027939
18:00+6юв3106576 0.0 1029364
21:00+4юв397270 0.0 1032270